Spokane Fairchild, WA

8:32 PM PDT on September 21, 2017 (GMT -0700)
Fairchild Air Force Base

Weather History for KSKA - November, 2013

Change the Weather History Date:

Sunday, November 3, 2013

  Actual Average Record
Temperature  
Mean Temperature 35 °F -  
Max Temperature 40 °F 44 °F 60 °F (2001)
Min Temperature 29 °F 28 °F 21 °F (2002)
Degree Days  
Heating Degree Days 30    
Moisture  
Dew Point 30 °F    
Average Humidity 85    
Maximum Humidity 100    
Minimum Humidity 56    
Precipitation  
Precipitation 0.01 in - - ()
Sea Level Pressure  
Sea Level Pressure 29.90 in    
Wind  
Wind Speed 12 mph (SSW)    
Max Wind Speed 18 mph    
Max Gust Speed 30 mph    
Visibility 8 miles    
Events Fog , Rain , Snow    
Averages and records for this station are not official NWS values.
T = Trace of Precipitation, MM = Missing Value Source: NWS Daily Summary

Daily Weather History Graph

Daily Weather History Graph

Search for Another Location

Airport or City:

Trip Planner

Search our weather history database for the weather conditions in past years. The results will help you decide how hot, cold, wet, or windy it might be!

Date:

Astronomy

Nov. 03, 2013 Rise Set
Actual Time 6:38 AM PST 4:29 PM PST
Civil Twilight 6:05 AM PST 5:01 PM PST
Nautical Twilight 5:29 AM PST 5:38 PM PST
Astronomical Twilight 4:53 AM PST 6:14 PM PST
Moon 6:48 AM PST (11/3) 4:45 PM PST (11/3)
Length of Visible Light 10h 56m
Length of Day
9h 51m
New Moon, 0% of the Moon is Illuminated
Nov 3
New Moon
Nov 9
First Quarter
Nov 17
Full
Nov 25
Last Quarter
Dec 2
New

Hourly Weather History & Observations

Time (PST) Temp. Windchill Dew Point Humidity Pressure Visibility Wind Dir Wind Speed Gust Speed Precip Events Conditions
12:58 AM 35.2 °F 24.7 °F 30.0 °F 81% 29.80 in 10.0 mi South 18.4 mph 26.5 mph 0.00 in Snow Light Snow
1:27 AM 35.6 °F 26.2 °F 30.2 °F 81% 29.76 in 10.0 mi South 15.0 mph - N/A   Mostly Cloudy
1:45 AM 35.6 °F 26.2 °F 28.4 °F 75% 29.77 in 10.0 mi South 15.0 mph 24.2 mph N/A Snow Light Snow
1:58 AM 34.7 °F 25.1 °F 28.6 °F 78% 29.80 in 10.0 mi South 15.0 mph - 0.00 in Snow Light Snow
1:30 AM 33.8 °F 23.9 °F 26.6 °F 75% 29.77 in 10.0 mi South 15.0 mph - N/A   Overcast
1:42 AM 33.8 °F 24.8 °F 26.6 °F 75% 29.77 in 10.0 mi South 12.7 mph - N/A Snow Light Snow
1:47 AM 33.8 °F 23.5 °F 26.6 °F 75% 29.77 in 10.0 mi South 16.1 mph - N/A   Overcast
1:58 AM 34.2 °F 24.4 °F 27.3 °F 76% 29.81 in 10.0 mi South 15.0 mph - 0.00 in   Mostly Cloudy
2:35 AM 32.0 °F 21.2 °F 28.4 °F 87% 29.77 in 10.0 mi SSW 16.1 mph 20.7 mph N/A   Mostly Cloudy
2:52 AM 32.0 °F 21.6 °F 28.4 °F 87% 29.78 in 10.0 mi South 15.0 mph - N/A   Mostly Cloudy
2:58 AM 32.7 °F 22.1 °F 28.6 °F 85% 29.82 in 10.0 mi South 16.1 mph - 0.00 in   Overcast
3:05 AM 32.0 °F 21.2 °F 28.4 °F 87% 29.78 in 10.0 mi South 16.1 mph - N/A   Overcast
3:15 AM 32.0 °F 21.2 °F 28.4 °F 87% 29.78 in 10.0 mi South 16.1 mph - N/A   Overcast
3:21 AM 32.0 °F 20.5 °F 28.4 °F 87% 29.78 in 10.0 mi South 18.4 mph - N/A   Overcast
3:46 AM 32.0 °F 21.2 °F 28.4 °F 87% 29.79 in 10.0 mi South 16.1 mph 21.9 mph N/A   Scattered Clouds
3:58 AM 32.5 °F 22.3 °F 28.8 °F 86% 29.84 in 10.0 mi South 15.0 mph - 0.00 in   Mostly Cloudy
8:18 AM 32.0 °F 24.2 °F 32.0 °F 100% 29.86 in 6.0 mi South 9.2 mph - N/A Snow Light Snow
8:23 AM 32.0 °F 24.2 °F 32.0 °F 100% 29.86 in 6.0 mi South 9.2 mph - N/A   Overcast
8:48 AM 32.0 °F 23.6 °F 32.0 °F 100% 29.86 in 10.0 mi South 10.4 mph - N/A   Overcast
8:58 AM 32.5 °F 24.8 °F 31.5 °F 96% 29.93 in 10.0 mi South 9.2 mph - 0.00 in   Overcast
9:43 AM 33.8 °F 26.4 °F 32.0 °F 93% 29.88 in 10.0 mi SSW 9.2 mph - N/A   Mostly Cloudy
9:58 AM 34.3 °F 25.9 °F 32.5 °F 93% 29.95 in 10.0 mi SSW 11.5 mph - 0.00 in   Mostly Cloudy
10:02 AM 33.8 °F 25.3 °F 32.0 °F 93% 29.89 in 10.0 mi SSW 11.5 mph - N/A   Mostly Cloudy
10:17 AM 35.6 °F 27.5 °F 32.0 °F 87% 29.89 in 10.0 mi SSW 11.5 mph - N/A   Overcast
10:44 AM 35.6 °F 28.6 °F 32.0 °F 87% 29.90 in 10.0 mi SSW 9.2 mph - N/A   Overcast
10:54 AM 35.6 °F 28.0 °F 32.0 °F 87% 29.90 in 10.0 mi SSW 10.4 mph - N/A   Overcast
10:58 AM 35.6 °F 28.0 °F 32.0 °F 87% 29.96 in 10.0 mi SSW 10.4 mph - 0.00 in   Overcast
11:25 AM 37.4 °F 28.9 °F 32.0 °F 81% 29.90 in 10.0 mi SSW 13.8 mph - N/A   Overcast
11:36 AM 37.4 °F 29.8 °F 32.0 °F 81% 29.90 in 10.0 mi SSW 11.5 mph - N/A   Mostly Cloudy
11:58 AM 38.5 °F 30.7 °F 30.2 °F 72% 29.96 in 10.0 mi SW 12.7 mph - 0.00 in   Scattered Clouds
12:23 PM 39.2 °F 31.6 °F 30.2 °F 70% 29.90 in 10.0 mi SW 12.7 mph - N/A   Overcast
12:30 PM 39.2 °F 30.8 °F 30.2 °F 70% 29.90 in 10.0 mi SW 15.0 mph - N/A   Overcast
12:31 PM 39.2 °F 30.8 °F 30.2 °F 70% 29.90 in 10.0 mi SW 15.0 mph - N/A   Overcast
12:33 PM 39.2 °F 30.8 °F 30.2 °F 70% 29.90 in 10.0 mi SW 15.0 mph - N/A   Overcast
12:58 PM 39.2 °F 30.8 °F 29.8 °F 69% 29.96 in 10.0 mi SW 15.0 mph - 0.00 in   Overcast
1:35 PM 39.2 °F 31.6 °F 28.4 °F 65% 29.90 in 10.0 mi SW 12.7 mph - N/A   Overcast
1:39 PM 39.2 °F 30.8 °F 28.4 °F 65% 29.90 in 10.0 mi SSW 15.0 mph - N/A   Overcast
1:51 PM 41.0 °F 33.5 °F 26.6 °F 57% 29.91 in 10.0 mi SW 13.8 mph - N/A   Overcast
1:57 PM 41.0 °F 32.8 °F 26.6 °F 57% 29.91 in 10.0 mi SW 16.1 mph - N/A   Overcast
1:58 PM 40.3 °F 31.9 °F 26.6 °F 58% 29.97 in 10.0 mi SW 16.1 mph - 0.00 in   Overcast
2:43 PM 39.2 °F 31.6 °F 26.6 °F 61% 29.91 in 10.0 mi WSW 12.7 mph - N/A   Overcast
2:50 PM 39.2 °F 31.6 °F 26.6 °F 61% 29.91 in 10.0 mi WSW 12.7 mph - N/A   Overcast
2:55 PM 39.2 °F 33.0 °F 24.8 °F 56% 29.91 in 10.0 mi WSW 9.2 mph - N/A   Overcast
2:58 PM 39.9 °F 33.9 °F 25.5 °F 56% 29.98 in 10.0 mi WSW 9.2 mph - 0.00 in   Overcast
3:05 PM 39.2 °F 31.2 °F 26.6 °F 61% 29.92 in 10.0 mi WSW 13.8 mph - N/A   Overcast
3:11 PM 39.2 °F 32.5 °F 26.6 °F 61% 29.92 in 10.0 mi WSW 10.4 mph - N/A   Overcast
3:21 PM 37.4 °F 29.3 °F 28.4 °F 70% 29.92 in 10.0 mi WSW 12.7 mph - N/A   Mostly Cloudy
3:28 PM 37.4 °F 29.3 °F 26.6 °F 65% 29.92 in 10.0 mi WSW 12.7 mph - N/A Snow Light Snow
3:48 PM 32.0 °F 20.8 °F 32.0 °F 100% 29.94 in 1.8 mi WNW 17.3 mph 29.9 mph N/A Snow Light Snow
3:50 PM 32.0 °F 21.2 °F 32.0 °F 100% 29.94 in 1.2 mi WNW 16.1 mph - N/A Snow Light Snow
3:51 PM 32.0 °F 21.6 °F 32.0 °F 100% 29.94 in 1.0 mi WNW 15.0 mph - N/A Snow Light Snow
3:53 PM 32.0 °F 22.1 °F 32.0 °F 100% 29.94 in 0.8 mi WNW 13.8 mph - N/A Snow Light Snow
3:56 PM 32.0 °F 23.6 °F 32.0 °F 100% 29.94 in 0.5 mi WNW 10.4 mph - N/A Fog , Snow Snow
3:58 PM 32.0 °F 24.8 °F 32.0 °F 100% 30.01 in 0.5 mi WNW 8.1 mph - 0.00 in Fog , Snow Snow
4:02 PM 32.0 °F 27.5 °F 32.0 °F 100% 29.94 in 0.8 mi WNW 4.6 mph - N/A Snow Light Snow
4:04 PM 32.0 °F 27.5 °F 32.0 °F 100% 29.94 in 0.8 mi Variable 4.6 mph - N/A Snow Light Snow
4:07 PM 32.0 °F 27.5 °F 32.0 °F 100% 29.94 in 0.8 mi NNW 4.6 mph - N/A Snow Light Snow
4:09 PM 32.0 °F 28.7 °F 32.0 °F 100% 29.93 in 1.0 mi North 3.5 mph - N/A Snow Light Snow
4:11 PM 32.0 °F - 32.0 °F 100% 29.93 in 1.2 mi NNW 2.3 mph - N/A Snow Light Snow
4:13 PM 32.0 °F - 32.0 °F 100% 29.93 in 2.0 mi North 2.3 mph - N/A Snow Light Snow
4:15 PM 32.0 °F - 30.2 °F 93% 29.93 in 4.0 mi NNE 2.3 mph - N/A Snow Light Snow
4:16 PM 32.0 °F - 30.2 °F 93% 29.93 in 6.0 mi NNE 1.2 mph - N/A Snow Light Snow
4:17 PM 32.0 °F - 30.2 °F 93% 29.93 in 9.0 mi NE 2.3 mph - N/A   Overcast
4:22 PM 32.0 °F - 30.2 °F 93% 29.93 in 10.0 mi Calm Calm - N/A   Mostly Cloudy
4:58 PM 29.1 °F 22.1 °F 28.0 °F 96% 30.01 in 10.0 mi SSE 6.9 mph - 0.01 in   Scattered Clouds
5:41 PM 32.0 °F - 32.0 °F 100% 29.93 in 10.0 mi South 2.3 mph - N/A Snow Light Snow
5:58 PM 32.2 °F - 31.1 °F 96% 30.00 in 10.0 mi SSE 2.3 mph - 0.00 in Rain Light Rain
5:59 PM 32.0 °F - 32.0 °F 100% 29.93 in 10.0 mi SSE 2.3 mph - N/A   Overcast
6:37 PM 32.0 °F 25.6 °F 30.2 °F 93% 29.93 in 10.0 mi SSE 6.9 mph - N/A   Overcast
6:46 PM 30.2 °F 24.3 °F 28.4 °F 93% 29.93 in 10.0 mi South 5.8 mph - N/A   Overcast
6:58 PM 30.0 °F 24.1 °F 28.9 °F 96% 30.01 in 10.0 mi South 5.8 mph - 0.00 in   Overcast
7:00 PM 30.2 °F 23.4 °F 28.4 °F 93% 29.94 in 10.0 mi South 6.9 mph - N/A   Overcast
7:10 PM 32.0 °F - 30.2 °F 93% 29.94 in 10.0 mi Variable 2.3 mph - N/A   Mostly Cloudy
7:15 PM 32.0 °F - 28.4 °F 87% 29.94 in 10.0 mi ENE 2.3 mph - N/A   Mostly Cloudy
7:43 PM 32.0 °F 26.4 °F 28.4 °F 87% 29.94 in 10.0 mi South 5.8 mph - N/A   Overcast
7:58 PM 31.1 °F 25.4 °F 28.8 °F 91% 30.01 in 10.0 mi SSE 5.8 mph - 0.00 in   Mostly Cloudy
8:18 PM 32.0 °F 24.8 °F 30.2 °F 93% 29.93 in 10.0 mi South 8.1 mph - N/A   Overcast
8:29 PM 32.0 °F 27.5 °F 30.2 °F 93% 29.93 in 10.0 mi SW 4.6 mph - N/A   Overcast
8:58 PM 31.1 °F 26.4 °F 29.7 °F 94% 30.01 in 10.0 mi ESE 4.6 mph - 0.00 in   Overcast
9:58 PM 31.5 °F 28.1 °F 29.8 °F 94% 30.02 in 10.0 mi SSE 3.5 mph - N/A   Overcast
10:58 PM 30.7 °F 26.0 °F 29.1 °F 94% 30.02 in 10.0 mi SE 4.6 mph - N/A   Mostly Cloudy